This is the latest recevied weather packets stored in our database for station/object SQ9SMC-13. If no packets are shown the sender has not sent any weather packets the latest 1 day(s).
| Time | Temp. | Humidity | Pressure | Rain* | Wind** | Luminosity | Snow |
|---|---|---|---|---|---|---|---|
| 1777982703 | 27.22° C | 22% | 1009.6 hPa | 0 mm | 2.24 m/s, 35° | 496 W/m² | - |
| 1777982403 | 27.22° C | 22% | 1009.4 hPa | 0 mm | 1.34 m/s, 24° | 523 W/m² | - |
| 1777982104 | 27.78° C | 22% | 1009.4 hPa | 0 mm | 3.13 m/s, 350° | 479 W/m² | - |
| 1777981803 | 27.78° C | 21% | 1009.7 hPa | 0 mm | 2.68 m/s, 0° | 737 W/m² | - |
| 1777981505 | 27.22° C | 23% | 1009.5 hPa | 0 mm | 3.13 m/s, 346° | 762 W/m² | - |
| 1777981207 | 26.67° C | 24% | 1009.8 hPa | 0 mm | 2.24 m/s, 347° | 456 W/m² | - |
| 1777980902 | 25.56° C | 24% | 1009.8 hPa | 0 mm | 0.89 m/s, 358° | 371 W/m² | - |
| 1777980604 | 25.56° C | 25% | 1009.8 hPa | 0 mm | 1.34 m/s, 15° | 264 W/m² | - |
| 1777980303 | 25.56° C | 24% | 1010 hPa | 0 mm | 3.13 m/s, 13° | 254 W/m² | - |
| 1777980002 | 25.56° C | 24% | 1010.2 hPa | 0 mm | 1.34 m/s, 66° | 244 W/m² | - |
| 1777979703 | 25.56° C | 25% | 1009.9 hPa | 0 mm | 0.89 m/s, 290° | 232 W/m² | - |
| 1777979404 | 26.11° C | 23% | 1010.1 hPa | 0 mm | 4.02 m/s, 41° | 238 W/m² | - |
| 1777979102 | 26.11° C | 23% | 1010.2 hPa | 0 mm | 2.24 m/s, 339° | 268 W/m² | - |
| 1777978803 | 26.67° C | 24% | 1010.2 hPa | 0 mm | 0.89 m/s, 33° | 358 W/m² | - |
| 1777978502 | 27.22° C | 22% | 1010.1 hPa | 0 mm | 3.58 m/s, 354° | 482 W/m² | - |
| 1777978203 | 26.67° C | 22% | 1010.2 hPa | 0 mm | 1.34 m/s, 358° | 596 W/m² | - |
| 1777977902 | 27.22° C | 22% | 1010.3 hPa | 0 mm | 3.13 m/s, 328° | 477 W/m² | - |
| 1777977604 | 26.67° C | 23% | 1010.4 hPa | 0 mm | 1.34 m/s, 349° | 490 W/m² | - |
| 1777977304 | 26.67° C | 25% | 1010.2 hPa | 0 mm | 3.13 m/s, 358° | 466 W/m² | - |
| 1777977004 | 27.78° C | 29% | 1010.4 hPa | 0 mm | 0.45 m/s, 4° | 568 W/m² | - |
| 1777976705 | 25.56° C | 29% | 1010.3 hPa | 0 mm | 0.45 m/s, 358° | 672 W/m² | - |
| 1777976402 | 25° C | 29% | 1010.6 hPa | 0 mm | 1.34 m/s, 348° | 314 W/m² | - |
| 1777976104 | 25° C | 29% | 1010.8 hPa | 0 mm | 0.89 m/s, 284° | 250 W/m² | - |
| 1777975802 | 25° C | 29% | 1010.7 hPa | 0 mm | 2.24 m/s, 324° | 243 W/m² | - |
| 1777975505 | 25° C | 29% | 1010.7 hPa | 0 mm | 0 m/s | 235 W/m² | - |
* Rain latest hour (hover to see other rain measurements)
** Current wind speed in m/s (hover to see current wind gust speed)